GPS BIIF-9 (PRN 26)

Last updated on Tue Dec 03 2024 00:03:09 GMT+0000 (Coordinated Universal Time)

1 40534U 15013A 24337.16086085 .00000051 00000+0 00000+0 0 9993 2 40534 53.2887 227.4395 0095214 32.5337 328.1403 2.00555520 70559
UTC large
Height (km)
Speed (km/s)
/
Latitude / Longitude
Inclination (degrees)
Orbital Period (minutes)
Azimuth
Elevation
Range (km)
Doppler Factor

Next 0 passes for location: London (51.5072 / 0.1276)

Sorry there are no passes over London.